| time (UTC) | temp F | wind direction | speed knots | gust knots | rain 1hr in | rain 24hr in | rain mn in | humidity % | barometer mb |
| 20260505152343 | 78 | 355 | 0.9 | 2.6 | 0.00 | 0.00 | 0.00 | 90 | 1009.8 |
| 20260505151839 | 78 | 84 | 0.9 | 2.6 | 0.00 | 0.00 | 0.00 | 91 | 1009.8 |
| 20260505151336 | 77 | 130 | 1.7 | 2.6 | 0.00 | 0.00 | 0.00 | 91 | 1009.8 |
| 20260505150832 | 77 | 213 | 0.9 | 2.6 | 0.00 | 0.00 | 0.00 | 92 | 1009.8 |
| 20260505150327 | 77 | 177 | 0.9 | 1.7 | 0.00 | 0.00 | 0.00 | 92 | 1009.8 |
| 20260505140508 | 75 | 208 | 0.9 | 1.7 | 0.00 | 0.00 | 0.00 | 91 | 1010.2 |
| 20260505130145 | 74 | 42 | 0.9 | 1.7 | 0.00 | 0.00 | 0.00 | 93 | 1009.8 |
| 20260505124635 | 74 | 80 | 0.9 | 0.9 | 0.00 | 0.00 | 0.00 | 92 | 1009.5 |
| 20260505123959 | 74 | 74 | 0.9 | 0.9 | 0.00 | 0.00 | 0.00 | 92 | 1009.5 |
| 20260505123455 | 74 | 74 | 0.9 | 0.9 | 0.00 | 0.00 | 0.00 | 92 | 1009.5 |
| 20260505122934 | 74 | 33 | 0.9 | 0.9 | 0.00 | 0.00 | 0.00 | 92 | 1009.5 |
| 20260505122430 | 73 | 31 | 0.0 | 0.9 | 0.00 | 0.00 | 0.00 | 92 | 1009.5 |
| 20260505121927 | 73 | 32 | 0.9 | 0.9 | 0.00 | 0.00 | 0.00 | 92 | 1009.5 |
| 20260505121353 | 73 | 32 | 0.0 | 0.9 | 0.00 | 0.00 | 0.00 | 92 | 1009.5 |
| 20260505120800 | 73 | 32 | 0.0 | 0.9 | 0.00 | 0.00 | 0.00 | 92 | 1009.5 |
| 20260505120257 | 73 | 32 | 0.0 | 0.9 | 0.00 | 0.00 | 0.00 | 92 | 1009.8 |
| 20260505115754 | 73 | 32 | 0.0 | 0.9 | 0.00 | 0.00 | 0.00 | 92 | 1009.5 |
| 20260505115220 | 73 | 32 | 0.0 | 0.9 | 0.00 | 0.00 | 0.00 | 92 | 1009.5 |
| 20260505114659 | 73 | 85 | 0.9 | 0.9 | 0.00 | 0.00 | 0.00 | 92 | 1009.5 |
| 20260505114156 | 73 | 120 | 0.9 | 0.9 | 0.00 | 0.00 | 0.00 | 92 | 1009.5 |
| 20260505113634 | 73 | 120 | 0.0 | 0.9 | 0.00 | 0.00 | 0.00 | 92 | 1009.5 |
| 20260505113132 | 73 | 120 | 0.9 | 0.9 | 0.00 | 0.00 | 0.00 | 92 | 1009.1 |
| 20260505112627 | 73 | 120 | 0.9 | 0.9 | 0.00 | 0.00 | 0.00 | 92 | 1009.5 |
| 20260505112123 | 73 | 120 | 0.9 | 0.9 | 0.00 | 0.00 | 0.00 | 92 | 1009.5 |
| 20260505111549 | 73 | 120 | 0.0 | 0.9 | 0.00 | 0.00 | 0.00 | 92 | 1009.5 |
| 20260505110949 | 73 | 120 | 0.0 | 0.9 | 0.00 | 0.00 | 0.00 | 92 | 1009.8 |
| 20260505110445 | 73 | 121 | 0.9 | 0.9 | 0.00 | 0.00 | 0.00 | 92 | 1009.5 |
| 20260505102220 | 73 | 97 | 0.0 | 0.9 | 0.00 | 0.00 | 0.00 | 92 | 1009.5 |
| 20260505101645 | 73 | 97 | 0.0 | 0.9 | 0.00 | 0.00 | 0.00 | 92 | 1009.5 |
| 20260505101141 | 73 | 97 | 0.0 | 0.9 | 0.00 | 0.00 | 0.00 | 91 | 1009.5 |
| 20260505100638 | 73 | 55 | 0.0 | 0.0 | 0.00 | 0.00 | 0.00 | 91 | 1009.1 |
| 20260505100115 | 73 | 55 | 0.0 | 0.0 | 0.00 | 0.00 | 0.00 | 91 | 1009.5 |
| 20260505095612 | 73 | 55 | 0.0 | 0.9 | 0.00 | 0.00 | 0.00 | 91 | 1009.5 |
| 20260505094935 | 73 | 55 | 0.0 | 0.9 | 0.00 | 0.00 | 0.00 | 91 | 1009.5 |
| 20260505094413 | 73 | 55 | 0.0 | 0.9 | 0.00 | 0.00 | 0.00 | 91 | 1009.5 |
| 20260505093839 | 73 | 55 | 0.0 | 0.9 | 0.00 | 0.00 | 0.00 | 91 | 1009.8 |
| 20260505093335 | 73 | 55 | 0.0 | 0.9 | 0.00 | 0.00 | 0.00 | 91 | 1009.8 |
| 20260505092833 | 73 | 55 | 0.0 | 0.9 | 0.00 | 0.00 | 0.00 | 91 | 1009.5 |
| 20260505092330 | 73 | 55 | 0.0 | 0.9 | 0.00 | 0.00 | 0.00 | 91 | 1009.5 |
| 20260505091826 | 73 | 55 | 0.0 | 0.9 | 0.00 | 0.00 | 0.00 | 91 | 1009.5 |
| 20260505091323 | 73 | 304 | 0.0 | 0.9 | 0.00 | 0.00 | 0.00 | 91 | 1009.8 |
| 20260505090820 | 73 | 281 | 0.0 | 0.9 | 0.00 | 0.00 | 0.00 | 91 | 1009.8 |
| 20260505090317 | 73 | 281 | 0.0 | 0.9 | 0.00 | 0.00 | 0.00 | 91 | 1009.8 |
| 20260505085814 | 73 | 281 | 0.0 | 0.9 | 0.00 | 0.00 | 0.00 | 91 | 1009.8 |
| 20260505085311 | 73 | 281 | 0.0 | 0.9 | 0.00 | 0.00 | 0.00 | 91 | 1009.8 |
| 20260505084808 | 73 | 281 | 0.0 | 0.9 | 0.00 | 0.00 | 0.00 | 91 | 1009.5 |
| 20260505084305 | 73 | 281 | 0.0 | 0.9 | 0.00 | 0.00 | 0.00 | 91 | 1009.5 |
| 20260505083802 | 73 | 281 | 0.0 | 0.9 | 0.00 | 0.00 | 0.00 | 91 | 1009.5 |
| 20260505083258 | 73 | 281 | 0.9 | 0.9 | 0.00 | 0.00 | 0.00 | 91 | 1009.8 |
| 20260505082756 | 73 | 281 | 0.9 | 0.9 | 0.00 | 0.00 | 0.00 | 91 | 1009.5 |
| 20260505082253 | 73 | 281 | 0.0 | 0.9 | 0.00 | 0.00 | 0.00 | 91 | 1009.8 |
| 20260505081749 | 73 | 281 | 0.0 | 0.9 | 0.00 | 0.00 | 0.00 | 90 | 1009.8 |
| 20260505081246 | 73 | 281 | 0.9 | 0.9 | 0.00 | 0.00 | 0.00 | 90 | 1009.8 |
| 20260505080743 | 73 | 281 | 0.0 | 0.9 | 0.00 | 0.00 | 0.00 | 90 | 1009.8 |
| 20260505080239 | 73 | 281 | 0.9 | 0.9 | 0.00 | 0.00 | 0.00 | 90 | 1009.8 |
| 20260505075736 | 72 | 282 | 0.0 | 0.9 | 0.00 | 0.00 | 0.00 | 90 | 1009.8 |
| 20260505075234 | 72 | 282 | 0.0 | 0.9 | 0.00 | 0.00 | 0.00 | 90 | 1009.8 |
| 20260505074731 | 72 | 282 | 0.9 | 0.9 | 0.00 | 0.00 | 0.00 | 90 | 1010.2 |
| 20260505074228 | 72 | 282 | 0.0 | 0.9 | 0.00 | 0.00 | 0.00 | 90 | 1009.8 |
| 20260505073725 | 72 | 281 | 0.9 | 1.7 | 0.00 | 0.00 | 0.00 | 90 | 1009.8 |
| 20260505073222 | 72 | 282 | 0.9 | 1.7 | 0.00 | 0.00 | 0.00 | 90 | 1010.2 |
| 20260505072718 | 72 | 282 | 0.0 | 1.7 | 0.00 | 0.00 | 0.00 | 91 | 1010.2 |
| 20260505072144 | 72 | 53 | 0.0 | 1.7 | 0.00 | 0.00 | 0.00 | 90 | 1010.2 |
| 20260505071642 | 72 | 196 | 0.9 | 1.7 | 0.00 | 0.00 | 0.00 | 91 | 1010.2 |
| 20260505071107 | 72 | 196 | 0.9 | 0.9 | 0.00 | 0.00 | 0.00 | 91 | 1010.2 |
| 20260505070604 | 71 | 196 | 0.0 | 0.9 | 0.00 | 0.00 | 0.00 | 91 | 1010.2 |
| 20260505070042 | 71 | 196 | 0.0 | 0.9 | 0.00 | 0.00 | 0.00 | 91 | 1010.5 |
| 20260505065539 | 71 | 196 | 0.0 | 0.9 | 0.00 | 0.00 | 0.00 | 91 | 1010.5 |
| 20260505065037 | 71 | 46 | 0.0 | 0.0 | 0.00 | 0.00 | 0.00 | 91 | 1010.5 |
| 20260505064534 | 71 | 46 | 0.0 | 0.0 | 0.00 | 0.00 | 0.00 | 91 | 1010.8 |
| 20260505064031 | 71 | 46 | 0.0 | 0.9 | 0.00 | 0.00 | 0.00 | 90 | 1010.8 |
| 20260505063528 | 71 | 46 | 0.0 | 0.9 | 0.00 | 0.00 | 0.00 | 90 | 1010.8 |
| 20260505063025 | 71 | 46 | 0.0 | 0.9 | 0.00 | 0.00 | 0.00 | 90 | 1010.8 |
| 20260505062420 | 71 | 46 | 0.9 | 0.9 | 0.00 | 0.00 | 0.00 | 90 | 1010.8 |
| 20260505061917 | 71 | 18 | 0.0 | 0.0 | 0.00 | 0.00 | 0.00 | 90 | 1010.8 |
| 20260505061414 | 71 | 18 | 0.0 | 0.0 | 0.00 | 0.00 | 0.00 | 90 | 1011.2 |
| 20260505060852 | 71 | 18 | 0.0 | 0.0 | 0.00 | 0.00 | 0.00 | 90 | 1011.2 |
| 20260505060349 | 71 | 18 | 0.0 | 0.0 | 0.00 | 0.00 | 0.00 | 90 | 1010.8 |
| 20260505055846 | 71 | 18 | 0.0 | 0.0 | 0.00 | 0.00 | 0.00 | 90 | 1011.2 |
| 20260505055343 | 71 | 18 | 0.0 | 0.0 | 0.00 | 0.00 | 0.00 | 90 | 1011.2 |
| 20260505054839 | 71 | 18 | 0.0 | 0.0 | 0.00 | 0.00 | 0.00 | 90 | 1011.2 |
| 20260505054247 | 71 | 18 | 0.0 | 0.0 | 0.00 | 0.00 | 0.00 | 90 | 1011.2 |
| 20260505053744 | 71 | 30 | 0.0 | 0.0 | 0.00 | 0.00 | 0.00 | 90 | 1011.2 |
| 20260505053240 | 71 | 346 | 0.0 | 0.0 | 0.00 | 0.00 | 0.00 | 90 | 1011.2 |
| 20260505052737 | 71 | 346 | 0.0 | 0.0 | 0.00 | 0.00 | 0.00 | 90 | 1011.2 |
| 20260505052132 | 71 | 346 | 0.0 | 0.0 | 0.00 | 0.00 | 0.00 | 90 | 1011.2 |
| 20260505051611 | 71 | 346 | 0.0 | 0.0 | 0.00 | 0.00 | 0.00 | 90 | 1011.2 |
| 20260505051107 | 71 | 346 | 0.0 | 0.0 | 0.00 | 0.00 | 0.00 | 90 | 1011.2 |
| 20260505050558 | 71 | 346 | 0.0 | 0.0 | 0.00 | 0.00 | 0.00 | 90 | 1011.2 |
| 20260505041438 | 70 | 346 | 0.0 | 0.0 | 0.00 | 0.00 | 0.00 | 89 | 1011.5 |
| 20260505040935 | 70 | 346 | 0.0 | 0.0 | 0.00 | 0.00 | 0.00 | 89 | 1011.5 |
| 20260505040431 | 70 | 346 | 0.0 | 0.0 | 0.00 | 0.00 | 0.00 | 89 | 1011.9 |
| 20260505035928 | 70 | 346 | 0.0 | 0.0 | 0.00 | 0.00 | 0.00 | 89 | 1011.9 |
| 20260505035354 | 70 | 346 | 0.0 | 0.0 | 0.00 | 0.00 | 0.00 | 89 | 1011.9 |
| 20260505034820 | 70 | 346 | 0.0 | 0.0 | 0.00 | 0.00 | 0.00 | 88 | 1011.9 |
| 20260505034317 | 71 | 346 | 0.0 | 0.9 | 0.00 | 0.00 | 0.00 | 88 | 1011.9 |
| 20260505033814 | 71 | 346 | 0.0 | 0.9 | 0.00 | 0.00 | 0.00 | 88 | 1011.9 |
| 20260505033311 | 71 | 346 | 0.0 | 0.9 | 0.00 | 0.00 | 0.00 | 88 | 1011.9 |
| 20260505032808 | 71 | 346 | 0.0 | 0.9 | 0.00 | 0.00 | 0.00 | 88 | 1011.9 |
| 20260505032305 | 71 | 346 | 0.0 | 0.0 | 0.00 | 0.00 | 0.00 | 87 | 1011.9 |
| 20260505031731 | 71 | 346 | 0.0 | 0.0 | 0.00 | 0.00 | 0.00 | 87 | 1011.9 |
| 20260505031228 | 71 | 346 | 0.0 | 0.0 | 0.00 | 0.00 | 0.00 | 87 | 1011.9 |
| 20260505030725 | 71 | 346 | 0.0 | 0.9 | 0.00 | 0.00 | 0.00 | 87 | 1011.9 |
| 20260505030222 | 71 | 346 | 0.0 | 0.9 | 0.00 | 0.00 | 0.00 | 87 | 1011.9 |
| 20260505025719 | 71 | 346 | 0.0 | 1.7 | 0.00 | 0.00 | 0.00 | 87 | 1011.9 |
| 20260505025216 | 71 | 346 | 0.0 | 2.6 | 0.00 | 0.00 | 0.00 | 87 | 1011.9 |
| 20260505024712 | 71 | 304 | 0.0 | 2.6 | 0.00 | 0.00 | 0.00 | 86 | 1011.9 |
| 20260505024210 | 71 | 304 | 0.0 | 2.6 | 0.00 | 0.00 | 0.00 | 86 | 1011.9 |
| 20260505023706 | 71 | 98 | 0.0 | 0.0 | 0.00 | 0.00 | 0.00 | 86 | 1011.9 |
| 20260505023203 | 71 | 91 | 0.0 | 0.0 | 0.00 | 0.00 | 0.00 | 86 | 1011.9 |
| 20260505022700 | 71 | 91 | 0.0 | 1.7 | 0.00 | 0.00 | 0.00 | 86 | 1011.9 |
| 20260505022157 | 72 | 91 | 0.0 | 1.7 | 0.00 | 0.00 | 0.00 | 86 | 1011.9 |
| 20260505021653 | 72 | 91 | 0.0 | 1.7 | 0.00 | 0.00 | 0.00 | 86 | 1011.9 |
| 20260505021150 | 72 | 91 | 0.0 | 1.7 | 0.00 | 0.00 | 0.00 | 86 | 1011.9 |
| 20260505020647 | 72 | 113 | 0.0 | 0.9 | 0.00 | 0.00 | 0.00 | 86 | 1011.9 |
| 20260505020144 | 72 | 113 | 0.0 | 0.9 | 0.00 | 0.00 | 0.00 | 85 | 1011.9 |
| 20260505015601 | 72 | 113 | 0.0 | 0.9 | 0.00 | 0.00 | 0.00 | 85 | 1011.5 |
| 20260505015057 | 72 | 113 | 0.0 | 0.9 | 0.00 | 0.00 | 0.00 | 85 | 1011.5 |
| 20260505014538 | 72 | 113 | 0.0 | 0.9 | 0.00 | 0.00 | 0.00 | 85 | 1011.5 |
| 20260505014002 | 72 | 113 | 0.9 | 0.9 | 0.00 | 0.00 | 0.00 | 85 | 1011.5 |
| 20260505013500 | 72 | 113 | 0.0 | 0.9 | 0.00 | 0.00 | 0.00 | 85 | 1011.5 |
| 20260505012957 | 72 | 113 | 0.9 | 0.9 | 0.00 | 0.00 | 0.00 | 85 | 1011.9 |
| 20260505012453 | 72 | 182 | 0.0 | 0.9 | 0.00 | 0.00 | 0.00 | 85 | 1011.9 |
| 20260505011950 | 73 | 182 | 0.9 | 0.9 | 0.00 | 0.00 | 0.00 | 84 | 1011.5 |
| 20260505011446 | 73 | 219 | 0.9 | 2.6 | 0.00 | 0.00 | 0.00 | 84 | 1011.5 |
| 20260505010943 | 73 | 220 | 0.9 | 2.6 | 0.00 | 0.00 | 0.00 | 84 | 1011.5 |
| 20260505010440 | 73 | 220 | 0.9 | 2.6 | 0.00 | 0.00 | 0.00 | 84 | 1011.5 |
| 20260505005937 | 73 | 230 | 1.7 | 2.6 | 0.00 | 0.00 | 0.00 | 83 | 1011.5 |
| 20260505005434 | 73 | 145 | 0.9 | 1.7 | 0.00 | 0.00 | 0.00 | 83 | 1011.2 |
| 20260505004930 | 73 | 16 | 0.9 | 1.7 | 0.00 | 0.00 | 0.00 | 83 | 1011.5 |
| 20260505004427 | 74 | 15 | 0.9 | 1.7 | 0.00 | 0.00 | 0.00 | 83 | 1011.2 |
| 20260505003924 | 74 | 107 | 0.9 | 1.7 | 0.00 | 0.00 | 0.00 | 82 | 1011.2 |
| 20260505003422 | 74 | 107 | 0.0 | 1.7 | 0.00 | 0.00 | 0.00 | 82 | 1011.5 |
| 20260505002919 | 74 | 107 | 0.9 | 2.6 | 0.00 | 0.00 | 0.00 | 81 | 1011.5 |
| 20260505002242 | 75 | 169 | 0.9 | 2.6 | 0.00 | 0.00 | 0.00 | 81 | 1011.5 |
| 20260505001739 | 75 | 169 | 0.9 | 2.6 | 0.00 | 0.00 | 0.00 | 81 | 1011.5 |
| 20260505001235 | 75 | 163 | 0.9 | 1.7 | 0.00 | 0.00 | 0.00 | 80 | 1011.5 |
| 20260505000733 | 75 | 299 | 0.0 | 1.7 | 0.00 | 0.00 | 0.00 | 80 | 1011.5 |
| 20260505000229 | 75 | 299 | 0.0 | 2.6 | 0.00 | 0.00 | 0.00 | 80 | 1011.5 |
| 20260504235726 | 75 | 303 | 0.9 | 2.6 | 0.00 | 0.00 | 0.00 | 80 | 1011.5 |
| 20260504235222 | 76 | 165 | 0.9 | 2.6 | 0.00 | 0.00 | 0.00 | 80 | 1011.5 |
| 20260504234720 | 76 | 143 | 0.9 | 2.6 | 0.00 | 0.00 | 0.00 | 80 | 1011.5 |
| 20260504234217 | 76 | 102 | 0.9 | 2.6 | 0.00 | 0.00 | 0.00 | 80 | 1011.5 |
| 20260504233714 | 76 | 131 | 0.9 | 2.6 | 0.00 | 0.00 | 0.00 | 80 | 1011.5 |
| 20260504233211 | 76 | 133 | 0.9 | 2.6 | 0.00 | 0.00 | 0.00 | 80 | 1011.5 |
| 20260504232708 | 76 | 149 | 0.9 | 2.6 | 0.00 | 0.00 | 0.00 | 80 | 1011.9 |
| 20260504232146 | 76 | 149 | 0.9 | 2.6 | 0.00 | 0.00 | 0.00 | 80 | 1011.9 |
| 20260504231623 | 76 | 163 | 0.9 | 2.6 | 0.00 | 0.00 | 0.00 | 80 | 1011.9 |
| 20260504231121 | 76 | 163 | 0.9 | 2.6 | 0.00 | 0.00 | 0.00 | 80 | 1011.9 |
| 20260504230559 | 76 | 161 | 0.9 | 2.6 | 0.00 | 0.00 | 0.00 | 79 | 1012.2 |
| 20260504230056 | 76 | 210 | 1.7 | 2.6 | 0.00 | 0.00 | 0.00 | 79 | 1012.2 |
| 20260504225537 | 76 | 121 | 0.9 | 2.6 | 0.00 | 0.00 | 0.00 | 79 | 1012.2 |
| 20260504225016 | 76 | 77 | 0.9 | 2.6 | 0.00 | 0.00 | 0.00 | 79 | 1012.2 |
| 20260504224511 | 76 | 76 | 0.9 | 2.6 | 0.00 | 0.00 | 0.00 | 79 | 1012.2 |
| 20260504224008 | 76 | 10 | 0.9 | 2.6 | 0.00 | 0.00 | 0.00 | 79 | 1012.2 |
| 20260504223434 | 76 | 19 | 0.9 | 2.6 | 0.00 | 0.00 | 0.00 | 80 | 1012.5 |
| 20260504222901 | 76 | 90 | 0.9 | 1.7 | 0.00 | 0.00 | 0.00 | 80 | 1012.5 |
| 20260504222358 | 76 | 115 | 0.9 | 1.7 | 0.00 | 0.00 | 0.00 | 80 | 1012.5 |
| 20260504221854 | 76 | 115 | 0.9 | 1.7 | 0.00 | 0.00 | 0.00 | 79 | 1012.5 |
| 20260504221258 | 76 | 115 | 0.9 | 2.6 | 0.00 | 0.00 | 0.00 | 79 | 1012.5 |
| 20260504220755 | 76 | 115 | 0.9 | 2.6 | 0.00 | 0.00 | 0.00 | 79 | 1012.5 |
| 20260504220252 | 77 | 116 | 0.9 | 2.6 | 0.00 | 0.00 | 0.00 | 78 | 1012.5 |
| 20260504215749 | 77 | 150 | 0.9 | 2.6 | 0.00 | 0.00 | 0.00 | 78 | 1012.9 |
| 20260504215246 | 77 | 331 | 0.0 | 3.5 | 0.00 | 0.00 | 0.00 | 78 | 1012.9 |
| 20260504214743 | 77 | 253 | 0.9 | 3.5 | 0.00 | 0.00 | 0.00 | 78 | 1012.9 |
| 20260504214240 | 78 | 253 | 0.9 | 3.5 | 0.00 | 0.00 | 0.00 | 78 | 1012.9 |
| 20260504213737 | 78 | 181 | 1.7 | 3.5 | 0.00 | 0.00 | 0.00 | 78 | 1012.9 |
| 20260504213233 | 78 | 165 | 0.9 | 2.6 | 0.00 | 0.00 | 0.00 | 76 | 1012.9 |
| 20260504212659 | 78 | 248 | 0.9 | 2.6 | 0.00 | 0.00 | 0.00 | 77 | 1012.9 |
| 20260504212137 | 78 | 145 | 0.9 | 2.6 | 0.00 | 0.00 | 0.00 | 77 | 1012.9 |
| 20260504211634 | 78 | 198 | 1.7 | 3.5 | 0.00 | 0.00 | 0.00 | 77 | 1012.9 |
| 20260504211028 | 78 | 169 | 0.9 | 3.5 | 0.00 | 0.00 | 0.00 | 78 | 1013.2 |
| 20260504210525 | 78 | 169 | 0.9 | 3.5 | 0.00 | 0.00 | 0.00 | 77 | 1013.2 |
| 20260504205951 | 79 | 200 | 0.9 | 3.5 | 0.00 | 0.00 | 0.00 | 75 | 1013.2 |
| 20260504205448 | 79 | 161 | 0.9 | 1.7 | 0.00 | 0.00 | 0.00 | 77 | 1013.2 |
| 20260504204945 | 78 | 160 | 0.9 | 2.6 | 0.00 | 0.00 | 0.00 | 77 | 1013.2 |
| 20260504204411 | 79 | 159 | 0.9 | 2.6 | 0.00 | 0.00 | 0.00 | 76 | 1013.5 |
| 20260504203837 | 79 | 147 | 0.9 | 2.6 | 0.00 | 0.00 | 0.00 | 75 | 1013.5 |
| 20260504203333 | 79 | 126 | 0.9 | 2.6 | 0.00 | 0.00 | 0.00 | 73 | 1013.5 |
| 20260504202759 | 79 | 179 | 0.9 | 1.7 | 0.00 | 0.00 | 0.00 | 76 | 1013.5 |
| 20260504202225 | 79 | 200 | 0.9 | 3.5 | 0.00 | 0.00 | 0.00 | 75 | 1013.5 |
| 20260504201721 | 80 | 234 | 0.9 | 3.5 | 0.00 | 0.00 | 0.00 | 74 | 1013.5 |
| 20260504201159 | 80 | 148 | 0.9 | 3.5 | 0.00 | 0.00 | 0.00 | 73 | 1013.9 |
| 20260504200656 | 80 | 150 | 1.7 | 3.5 | 0.00 | 0.00 | 0.00 | 74 | 1013.9 |
| 20260504200153 | 80 | 73 | 0.9 | 2.6 | 0.00 | 0.00 | 0.00 | 72 | 1013.9 |
| 20260504195649 | 80 | 73 | 0.9 | 2.6 | 0.00 | 0.00 | 0.00 | 74 | 1013.9 |
| 20260504195114 | 80 | 131 | 0.9 | 2.6 | 0.00 | 0.00 | 0.00 | 72 | 1013.9 |
| 20260504194611 | 80 | 130 | 0.9 | 2.6 | 0.00 | 0.00 | 0.00 | 74 | 1013.9 |
| 20260504194108 | 81 | 124 | 1.7 | 2.6 | 0.00 | 0.00 | 0.00 | 73 | 1013.9 |
| 20260504193605 | 81 | 34 | 0.0 | 1.7 | 0.00 | 0.00 | 0.00 | 71 | 1014.2 |
| 20260504193103 | 81 | 19 | 0.0 | 4.3 | 0.00 | 0.00 | 0.00 | 72 | 1014.2 |
| 20260504192559 | 80 | 355 | 0.9 | 4.3 | 0.00 | 0.00 | 0.00 | 75 | 1014.2 |
| 20260504192025 | 80 | 300 | 0.9 | 4.3 | 0.00 | 0.00 | 0.00 | 71 | 1014.2 |
| 20260504191451 | 81 | 220 | 1.7 | 2.6 | 0.00 | 0.00 | 0.00 | 72 | 1014.2 |
| 20260504190948 | 81 | 187 | 0.9 | 2.6 | 0.00 | 0.00 | 0.00 | 73 | 1014.2 |
| 20260504190412 | 80 | 337 | 0.9 | 2.6 | 0.00 | 0.00 | 0.00 | 71 | 1014.6 |
| 20260504185909 | 80 | 133 | 0.9 | 2.6 | 0.00 | 0.00 | 0.00 | 72 | 1014.6 |
| 20260504185407 | 81 | 96 | 0.9 | 3.5 | 0.00 | 0.00 | 0.00 | 72 | 1014.6 |
| 20260504184903 | 81 | 58 | 0.9 | 3.5 | 0.00 | 0.00 | 0.00 | 72 | 1014.6 |
| 20260504184359 | 82 | 154 | 0.9 | 3.5 | 0.00 | 0.00 | 0.00 | 71 | 1014.6 |
| 20260504183825 | 82 | 127 | 1.7 | 3.5 | 0.00 | 0.00 | 0.00 | 71 | 1014.2 |
| 20260504183322 | 82 | 350 | 0.9 | 2.6 | 0.00 | 0.00 | 0.00 | 70 | 1014.6 |
| 20260504182747 | 82 | 256 | 0.9 | 2.6 | 0.00 | 0.00 | 0.00 | 72 | 1014.9 |
| 20260504182244 | 81 | 282 | 0.9 | 3.5 | 0.00 | 0.00 | 0.00 | 72 | 1014.9 |
| 20260504181740 | 81 | 69 | 0.9 | 3.5 | 0.00 | 0.00 | 0.00 | 70 | 1014.9 |
| 20260504181205 | 81 | 99 | 0.9 | 3.5 | 0.00 | 0.00 | 0.00 | 72 | 1014.9 |
| 20260504180701 | 80 | 155 | 0.9 | 3.5 | 0.00 | 0.00 | 0.00 | 72 | 1014.9 |
| 20260504180150 | 80 | 117 | 0.0 | 2.6 | 0.00 | 0.00 | 0.00 | 72 | 1014.9 |
| 20260504175646 | 80 | 64 | 0.0 | 2.6 | 0.00 | 0.00 | 0.00 | 72 | 1014.9 |
| 20260504175140 | 80 | 102 | 0.9 | 2.6 | 0.00 | 0.00 | 0.00 | 73 | 1015.2 |
| 20260504174637 | 80 | 154 | 0.9 | 2.6 | 0.00 | 0.00 | 0.00 | 73 | 1015.2 |
| 20260504174132 | 80 | 155 | 0.9 | 2.6 | 0.00 | 0.00 | 0.00 | 72 | 1015.2 |
| 20260504173629 | 80 | 172 | 0.9 | 2.6 | 0.00 | 0.00 | 0.00 | 72 | 1015.6 |
| 20260504173125 | 80 | 240 | 0.9 | 2.6 | 0.00 | 0.00 | 0.00 | 73 | 1015.6 |
| 20260504172621 | 80 | 98 | 0.9 | 2.6 | 0.00 | 0.00 | 0.00 | 71 | 1015.6 |
| 20260504172100 | 80 | 89 | 0.9 | 2.6 | 0.00 | 0.00 | 0.00 | 72 | 1015.6 |
| 20260504171556 | 79 | 331 | 0.9 | 2.6 | 0.00 | 0.00 | 0.00 | 74 | 1015.6 |
| 20260504171034 | 80 | 78 | 1.7 | 2.6 | 0.00 | 0.00 | 0.00 | 71 | 1015.6 |
| 20260504170531 | 79 | 299 | 0.9 | 3.5 | 0.00 | 0.00 | 0.00 | 74 | 1015.6 |
| 20260504160253 | 78 | 48 | 0.9 | 1.7 | 0.00 | 0.00 | 0.00 | 74 | 1016.3 |